EHI
0 0 0 0 0 0 0 0 0 0 0 0 0 0 0 0 0 0 0 0 0 0 0 0 0 0 0 0 0 0 0 0 0 0 0 0 0 0 0 0 0 0 0 0
0 0 0 0 0 0 0 0 0 0 0 0 0 0 0 0 0 0 0 0 0 0 0 0 0 0 0 0 0 0 0 0 0 0 0 0 0 0 0 0 0 0 0 0
0 0 0 0 0 0 0 0 0 0 0 0 0 0 0 0 0 0 0 0 0 0 0 0 0 0 0 0 0 0 0 0 0 0 0 0 0 0 0 0 0 0 0 0
0 0 0 0 0 0 0 0 0 0 0 0 0 0 0 0 0 0 0 0 0 0 0 0 0 0 0 0 0 0 0 0 0 0 0 0 0 0 0 0 0 0 0 0
0 0 0 0 0 0 0 0 0 0 0 0 0 0 0 0 0 0 0 0 0 0 0 0 0 0 0 0 0 0 0 0 0 0 0 0 0 0 0 0 0 0 0 0
0 0 0 0 0 0 0 0 0 0 0 0 0 0 0 0 0 0 0 0 0 0 0 0 0 0 0 0 0 0 0 0 0 0 0 0 0 0 0 0 0 0 0 0
0 0 0 0 0 0 0 0 0 0 0 0 0 0 0 0 0 0 0 0 0 0 0 0 0 0 0 0 0 0 0 0 0 0 0 0 0 0 0 0 0 0 0 0
0 0 0 0 0 0 0 0 0 0 0 0 0 0 0 0 0 0 0 0 0 0 0 0 0 0 0 0 0 0 0 0 0 0 0 0 0 0 0 0 0 0 0 0
0 0 0 0 0 0 0 0 0 0 0 0 0 0 0 0 0 0 0 0 0 0 0 0 0 0 0 0 0 0 0 0 0 0 0 0 0 0 0 0 0 0 0 0
0 0 0 0 0 0 0 0 0 0 0 0 0 0 0 0 0 0 0 0 0 0 0 0 0 0 0 0 0 0 0 0 0 0 0 0 0 0 0 0 0 0 0 0
0 0 0 0 0 0 0 0 0 0 0 0 0 0 0 0 0 0 0 0 0 0 0 0 0 0 0 0 0 0 0 0 0 0 0 0 0 0 0 0 0 0 0 0
0 0 0 0 0 0 0 0 0 0 0 0 0 0 0 0 0 0 0 0 0 0 0 0 0 0 0 0 0 0 0 0 0 0 0 0 0 0 0 0 0 0 0 0
0 0 0 0 0 0 0 0 0 0 0 0 0 0 0 0 0 0 0 0 0 0 0 0 0 0 0 0 0 0 0 0 0 0 0 0 0 0 0 0 0 0 0 0
0 0 0 0 0 0 0 0 0 0 0 0 0 0 0 0 0 0 0 0 0 0 0 0 0 0 0 0 0 0 0 0 0 0 0 0 0 0 0 0 0 0 0 0
0 0 0 0 0 0 0 0 0 0 0 0 0 0 0 0 0 0 0 0 0 0 0 0 0 0 0 0 0 0 0 0 0 0 0 0 0 0 0 0 0 0 0 0
0 0 0 0 0 0 0 0 0 0 0 0 0 0 0 0 0 0 0 0 0 0 0 0 0 0 0 0 0 0 0 0 0 0 0 0 0 0 0 0 0 0 0 0
0 0 0 0 0 0 0 0 0 0 0 0 0 0 0 0 0 0 0 0 0 0 0 0 0 0 0 0 0 0 0 0 0 0 0 0 0 0 0 0 0 0 0 0
0 0 0 0 0 0 0 0 0 0 0 0 0 0 0 0 0 0 0 0 0 0 0 0 0 0 0 0 0 0 0 0 0 0 0 0 0 0 0 0 0 0 0 0
0 0 0 0 0 0 0 0 0 0 0 0 0 0 0 0 0 0 0 0 0 0 0 0 0 0 0 0 0 0 0 0 0 0 0 0 0 0 0 0 0 0 0 0
0 0 0 0 0 0 0 0 0 0 0 0 0 0 0 0 0 0 0 0 0 0 0 0 0 0 0 0 0 0 0 0 0 0 0 0 0 0 0 0 0 0 0 0
0 0 0 0 0 0 0 0 0 0 0 0 0 0 0 0 0 0 0 0 0 0 0 0 0 0 0 0 0 0 0 0 0 0 0 0 0 0 0 0 0 0 0 0
0 0 0 0 0 0 0 0 0 0 0 0 0 0 0 0 0 0 0 0 0 0 0 0 0 0 0 0 0 0 0 0 0 0 0 0 0 0 0 0 0 0 0 0
0 0 0 0 0 0 0 0 0 0 0 0 0 0 0 0 0 0 0 0 0 0 0 0 0 0 0 0 0 0 0 0 0 0 0 0 0 0 0 0 0 0 0 0
0 0 0 0 0 0 0 0 0 0 0 0 0 0 0 0 0 0 0 0 0 0 0 0 0 0 0 0 0 0 0 0 0 0 0 0 0 0 0 0 0 0 0 0
0 0 0 0 0 0 0 0 0 0 0 0 0 0 0 0 0 0 0 0 0 0 0 0 0 0 0 0 0 0 0 0 0 0 0 0 0 0 0 0 0 0 0 0
0 0 0 0 0 0 0 0 0 0 0 0 0 0 0 0 0 0 0 0 0 0 0 0 0 0 0 0 0 0 0 0 0 0 0 0 0 0 0 0 0 0 0 0
Wind_Speed
13 13 18 22 23 18 15 16 18 14 9 12 18 22 20 17 16 18 18 17 16 17 16 14 13 14 15 16 17 18 18 17 14 12 12 11 11 10 10 10 12 14 13 14
12 22 23 18 19 19 18 19 19 11 9 11 15 22 21 20 21 20 20 20 19 18 16 15 14 14 16 17 18 19 19 19 18 14 13 11 11 10 11 10 12 15 15 15
23 14 18 17 18 21 22 22 20 12 5 8 10 19 22 21 21 21 21 21 21 20 19 17 16 16 16 18 19 17 20 20 20 19 13 10 10 9 10 13 13 15 16 16
22 16 16 19 21 21 22 20 17 13 10 10 10 15 20 18 20 21 22 21 22 21 20 19 18 17 17 18 18 19 20 21 20 19 16 17 15 15 17 13 12 14 16 17
15 17 19 22 22 21 14 11 14 14 14 13 12 15 17 13 20 21 20 21 21 20 20 20 19 18 18 17 16 17 19 20 20 21 21 20 18 16 13 14 15 15 14 17
13 9 16 18 15 15 9 7 8 10 11 18 22 18 19 16 20 18 17 18 19 19 19 20 19 17 17 16 15 16 18 20 20 22 22 22 23 20 18 17 15 14 12 13
15 13 9 9 13 13 13 10 8 11 12 16 16 18 20 15 17 18 18 17 17 17 18 18 18 17 16 16 16 17 19 20 20 22 23 23 24 23 23 19 17 16 13 13
18 16 18 14 18 18 21 19 13 11 11 11 11 19 17 11 13 15 16 16 15 16 16 16 17 16 16 16 16 17 18 20 20 21 22 22 23 18 16 20 17 17 14 15
17 15 13 17 14 16 17 19 15 8 5 8 10 14 15 8 12 14 16 15 16 16 16 16 16 15 15 14 15 16 17 18 19 20 21 21 22 21 20 19 19 16 15 14
10 10 9 12 10 16 14 10 8 11 10 13 13 17 15 12 14 13 14 15 15 15 14 15 14 14 13 13 13 14 16 17 18 18 18 16 20 21 20 18 19 18 18 17
10 9 8 11 17 19 16 16 12 8 7 10 13 14 10 13 11 12 13 13 14 14 13 13 12 11 11 11 11 12 13 15 15 16 17 18 18 19 19 18 19 18 17 17
12 7 8 12 9 11 17 19 19 13 11 9 10 14 4 6 6 8 10 10 11 12 12 12 11 10 10 10 10 11 12 13 14 15 15 17 17 17 18 19 19 18 17 16
13 8 8 7 7 9 14 18 20 17 10 11 13 16 7 6 7 7 8 10 10 10 11 11 10 9 10 10 10 10 11 12 12 13 14 15 16 17 18 18 17 17 16 16
12 8 12 16 11 11 15 18 19 18 13 16 21 24 20 15 13 11 10 11 12 12 12 12 11 11 10 9 9 10 10 10 10 11 13 14 15 15 16 16 15 15 15 15
10 9 9 11 9 9 12 16 21 22 21 18 21 25 26 20 16 13 12 12 12 13 13 13 12 12 11 10 10 9 10 9 9 10 12 13 12 12 13 13 13 13 13 13
9 7 7 7 10 10 12 16 19 23 23 24 24 26 22 19 16 16 14 12 13 14 14 13 13 12 12 11 10 9 10 9 8 10 11 11 10 10 11 11 10 10 11 11
9 7 8 8 8 7 15 20 22 20 20 21 25 25 19 18 17 16 15 13 14 14 13 13 13 13 12 12 10 11 10 7 7 9 9 8 9 9 10 9 9 10 11 10
10 8 5 5 6 14 10 7 14 19 19 18 18 18 18 18 17 14 12 11 12 12 14 14 13 14 13 12 11 9 7 6 7 7 8 7 8 9 8 8 10 10 8 9
10 9 6 6 9 10 8 6 8 12 14 11 14 16 17 15 13 13 8 9 11 13 13 13 13 14 14 12 10 7 6 6 6 8 8 7 8 8 8 9 10 9 8 8
7 8 6 7 9 12 9 5 6 7 11 6 8 11 12 10 11 11 9 11 12 12 12 12 13 13 13 11 7 6 7 7 9 9 8 6 6 7 9 9 8 6 6 7
10 9 11 11 10 10 6 4 7 10 7 3 4 6 8 9 11 13 13 12 12 12 12 13 12 11 11 9 5 7 8 10 8 5 4 5 6 6 7 6 5 5 5 5
13 11 11 10 11 13 4 7 8 5 0 2 3 5 7 10 12 13 13 13 12 12 12 11 11 11 9 7 5 7 9 8 5 4 4 5 4 4 4 5 5 5 6 6
10 9 7 10 9 2 4 5 2 0 2 3 4 5 7 10 10 12 13 12 11 11 11 10 10 11 9 7 5 8 8 5 4 3 4 3 3 3 4 5 6 6 6 6
5 3 5 5 6 4 3 3 1 2 3 3 4 6 7 9 11 12 11 11 11 10 10 9 9 9 9 8 7 7 7 4 3 4 4 3 3 3 3 4 4 5 6 6
5 5 5 6 4 3 4 3 2 2 3 4 5 6 7 9 9 9 10 11 10 10 9 8 8 8 9 9 8 7 6 4 4 3 3 3 3 3 3 3 3 4 3 4
5 6 7 7 4 5 4 1 1 3 5 6 7 8 7 7 9 9 9 9 9 9 9 8 8 8 9 8 8 7 6 4 3 3 2 2 3 3 3 3 2 3 3 4
Wind_Direction
187 202 208 206 211 225 224 223 228 230 209 215 238 249 250 248 246 249 250 249 248 247 247 241 231 222 217 215 214 212 210 208 204 203 205 207 211 212 214 216 215 213 211 208
193 217 218 212 211 218 225 230 234 235 215 226 251 257 255 250 248 248 250 249 249 251 248 240 233 223 217 216 214 214 214 210 206 207 207 210 212 215 216 215 217 216 213 211
211 215 208 207 207 212 221 226 229 226 206 228 264 264 252 246 246 247 246 248 248 247 247 244 236 229 222 219 217 214 213 212 210 209 208 207 211 216 214 215 216 215 214 213
218 215 197 205 213 210 225 224 231 225 221 233 224 266 257 248 245 242 242 242 243 243 243 244 241 236 228 224 220 218 217 214 212 208 208 207 208 213 216 216 215 214 213 215
209 204 202 209 213 211 225 214 219 223 230 245 230 252 262 244 247 244 239 238 240 241 241 243 241 240 237 229 223 220 219 217 214 210 210 211 217 221 222 218 217 214 211 214
219 206 210 216 213 210 196 186 215 228 230 239 232 237 261 236 241 247 243 240 240 241 241 243 244 242 241 234 224 222 221 220 216 213 212 214 217 219 220 219 216 214 213 212
214 215 209 199 193 192 190 187 204 210 216 235 225 227 250 244 239 243 246 245 243 241 241 243 243 241 239 235 228 223 222 222 218 215 215 217 219 220 221 221 220 217 215 213
203 212 201 199 203 199 202 205 212 221 225 231 205 228 248 246 242 242 247 251 250 247 244 245 246 245 242 238 233 227 225 226 221 217 218 219 220 221 224 223 222 219 219 218
201 215 195 202 204 200 201 213 224 243 259 253 229 245 259 244 241 239 245 250 252 252 250 249 250 249 248 243 236 231 228 227 224 221 220 220 220 221 223 223 223 223 222 220
200 203 194 190 193 212 211 194 192 213 226 238 239 240 244 234 233 236 240 245 251 253 254 254 255 255 253 249 244 238 234 231 228 225 223 222 221 222 224 224 223 222 222 220
200 194 181 182 197 199 195 202 205 210 218 232 246 248 243 246 238 237 243 249 255 259 261 263 263 262 261 259 252 243 237 235 232 228 226 224 224 223 224 224 225 224 224 221
194 196 203 210 215 220 211 210 206 215 219 228 250 258 228 240 248 249 260 269 273 275 276 277 275 272 268 262 255 247 240 235 233 230 228 227 227 225 224 225 225 224 224 221
179 187 191 198 210 209 217 219 220 226 232 231 240 255 251 244 254 262 275 284 288 289 287 284 282 277 272 266 259 254 247 241 236 230 228 228 227 225 225 225 225 223 222 222
175 194 211 218 211 194 208 215 217 220 227 234 238 253 261 266 276 283 282 285 289 289 288 287 285 282 277 270 265 261 257 250 242 234 229 228 227 225 226 226 224 223 221 221
183 204 215 235 234 215 216 218 217 221 228 236 245 250 259 267 272 279 284 287 286 287 288 287 286 284 282 276 270 265 262 255 241 235 233 231 228 227 225 224 223 222 220 219
189 196 195 224 226 227 237 232 227 227 232 238 249 256 261 270 275 278 281 283 285 286 288 289 287 284 280 277 273 267 262 255 238 234 235 234 228 223 221 220 218 215 216 216
180 174 184 219 218 223 237 229 227 230 231 233 242 251 262 267 269 273 278 278 281 287 292 292 290 288 285 282 276 270 266 260 239 235 236 230 223 222 220 215 213 214 214 211
174 172 180 183 177 224 234 229 228 234 239 239 247 259 265 269 274 276 280 286 292 297 299 299 297 293 289 285 279 272 265 251 242 240 239 231 219 220 216 210 214 216 210 208
184 174 180 192 221 250 259 226 210 222 238 240 248 263 274 284 283 270 279 294 293 297 300 299 298 294 290 286 282 273 261 250 243 242 238 231 220 214 210 212 214 212 206 207
194 188 186 198 216 231 237 202 198 205 238 239 246 260 274 286 269 271 311 312 305 304 301 300 299 296 291 290 288 271 261 251 245 243 238 228 217 211 213 214 212 206 200 204
181 191 204 212 229 247 247 208 173 204 232 194 227 254 269 265 266 292 311 306 303 303 303 305 304 299 296 298 286 265 262 255 256 249 234 224 216 213 212 206 197 186 184 183
186 189 200 203 221 236 195 173 199 231 242 207 251 268 278 281 288 296 300 302 307 308 310 312 307 303 306 310 292 270 265 272 276 249 234 227 215 209 197 185 183 177 174 177
204 201 195 203 218 210 161 176 181 224 242 263 280 289 286 283 287 298 301 302 304 307 310 312 308 306 311 316 299 275 279 287 274 254 246 235 208 196 187 183 183 178 177 185
213 208 202 221 225 212 188 169 194 253 262 280 283 284 282 283 291 298 301 305 308 312 313 313 313 310 313 319 312 295 298 293 261 244 244 225 202 193 182 183 185 185 187 191
196 184 202 230 232 215 211 220 264 304 316 309 301 292 288 291 295 299 301 305 309 312 315 315 311 308 308 314 315 316 311 296 269 252 240 223 206 190 184 183 180 185 195 193
214 208 209 223 210 225 235 194 324 305 307 309 307 303 302 297 297 302 299 304 311 314 318 316 314 312 312 316 317 321 317 304 276 264 247 225 209 191 184 172 145 110 137 139